This demonstration page uses our WeatherBlox Daily Observations layout. Learn more.

Left ArrowRight Arrow

39.51506, -84.39828

Hourly Observations for August 15, 2022

Temp ( °F °C ) Dew Point ( °F °C ) Humidity (%) Winds ( mph kmh ) Pressure ( in mb ) Visibility ( mi km ) Precip ( " mm )
12:15 am 00:15 Cloudy 67 19.6 66 19 96 96 ENE 3 6 29.93 1013 7 11 0.00 0.00
12:35 am 00:35 Cloudy 67 19.5 66 19 97 97 Calm 29.93 1013 10 16 0.00 0.00
12:55 am 00:55 Cloudy 67 19.7 66 18.9 95 95 Calm 29.93 1013 10 16 0.00 0.00
1:15 am 01:15 Cloudy 67 19.6 66 19 96 96 NE 5 7 29.93 1013 10 16 0.00 0.00
1:35 am 01:35 Cloudy 67 19.7 66 18.9 95 95 NE 5 7 29.91 1013 10 16 0.00 0.00
1:55 am 01:55 Cloudy 67 19.7 67 19.3 98 98 Calm 29.91 1013 10 16 0.00 0.00
2:15 am 02:15 Cloudy 67 19.5 67 19.5 100 100 NNE 6 9 29.92 1013 10 16 0.00 0.00
2:35 am 02:35 Cloudy 67 19.4 66 18.8 96 96 NE 8 13 29.92 1013 10 16 0.00 0.00
2:55 am 02:55 Cloudy 67 19.3 65 18.6 96 96 NE 6 9 29.92 1013 10 16 0.00 0.00
3:15 am 03:15 Cloudy 66 19 64 18 94 94 NE 9 15 29.91 1013 10 16 0.00 0.00
3:35 am 03:35 Cloudy 66 18.9 64 18 95 95 NE 9 15 29.91 1013 10 16 0.00 0.00
3:55 am 03:55 Cloudy 66 18.8 64 17.7 93 93 NE 8 13 29.91 1013 10 16 0.00 0.00
4:15 am 04:15 Cloudy 65 18.4 64 17.7 96 96 Calm 29.91 1013 10 16 0.00 0.00
4:35 am 04:35 Cloudy 65 18.2 64 17.6 96 96 N 5 7 29.92 1013 10 16 0.00 0.00
4:55 am 04:55 Cloudy 64 17.9 64 17.6 98 98 N 3 6 29.92 1013 10 16 0.00 0.00
5:15 am 05:15 Cloudy 64 18 64 17.9 99 99 N 3 6 29.92 1013 10 16 0.00 0.00
5:35 am 05:35 Partly Cloudy 64 17.6 N/A N/A N 5 7 29.92 1013 10 16 0.00 0.00
5:55 am 05:55 Clear 64 17.5 N/A N/A N 3 6 29.93 1014 10 16 0.00 0.00
6:15 am 06:15 Mostly Cloudy 63 17.3 N/A N/A N 3 6 29.93 1014 10 16 0.00 0.00
6:35 am 06:35 Cloudy 63 17.2 N/A N/A NNW 3 6 29.93 1014 10 16 0.00 0.00
6:55 am 06:55 Cloudy 63 17.3 N/A N/A Calm 29.94 1014 10 16 0.00 0.00
7:15 am 07:15 Cloudy 63 17.4 N/A N/A Calm 29.94 1014 10 16 0.00 0.00
7:35 am 07:35 Cloudy 64 17.8 64 17.7 99 99 N 3 6 29.95 1014 10 16 0.00 0.00
7:55 am 07:55 Cloudy 64 17.9 64 17.8 99 99 Calm 29.96 1015 10 16 0.00 0.00
8:15 am 08:15 Cloudy 65 18.5 64 18 97 97 NNE 5 7 29.95 1014 10 16 0.00 0.00
8:35 am 08:35 Cloudy 66 18.8 64 17.9 95 95 NNE 3 6 29.95 1014 10 16 0.00 0.00
8:55 am 08:55 Mostly Cloudy 66 18.7 64 17.8 95 95 NNE 6 9 29.96 1015 10 16 0.00 0.00
9:15 am 09:15 Cloudy 67 19.6 64 18 90 90 NNE 7 11 29.96 1014 10 16 0.00 0.00
9:35 am 09:35 Mostly Cloudy 69 20.8 63 17 79 79 NE 9 15 29.95 1014 10 16 0.00 0.00
9:55 am 09:55 Cloudy 69 20.8 62 16.9 78 78 NE 9 15 29.95 1014 10 16 0.00 0.00
10:15 am 10:15 Cloudy 70 21.3 62 16.9 76 76 N 8 13 29.95 1014 10 16 0.00 0.00
10:35 am 10:35 Cloudy 71 21.5 62 16.5 73 73 NNE 7 11 29.95 1014 10 16 0.00 0.00
10:55 am 10:55 Cloudy 72 22.3 63 17.3 73 73 NNE 6 9 29.95 1014 10 16 0.00 0.00
11:15 am 11:15 Cloudy 73 23 63 17.4 71 71 NE 5 7 29.95 1014 10 16 0.00 0.00
11:35 am 11:35 Mostly Cloudy 74 23.2 63 17.2 69 69 NNE 7 11 29.96 1014 10 16 0.00 0.00
11:55 am 11:55 Partly Cloudy 75 24 63 17 65 65 NE 9 15 29.95 1014 10 16 0.00 0.00
12:15 pm 12:15 Mostly Cloudy 77 24.8 62 16.4 60 60 N 10 17 29.94 1014 10 16 0.00 0.00
12:35 pm 12:35 Partly Cloudy 77 24.8 61 16.1 58 58 N 6 9 29.93 1014 10 16 0.00 0.00
12:55 pm 12:55 Sunny 78 25.5 61 15.9 55 55 NNE 7 11 29.93 1014 10 16 0.00 0.00
1:15 pm 13:15 Mostly Cloudy 77 25.1 60 15.8 56 56 NE 10 17 29.93 1014 10 16 0.00 0.00
1:35 pm 13:35 Mostly Cloudy 77 25.1 60 15.3 55 55 NNE 5 7 29.94 1014 10 16 0.00 0.00
1:55 pm 13:55 Mostly Cloudy 77 25.2 60 15.8 56 56 N 3 6 29.94 1014 10 16 0.00 0.00
2:15 pm 14:15 Mostly Cloudy 80 26.6 60 15.4 50 50 ENE 6 9 29.94 1014 10 16 0.00 0.00
2:35 pm 14:35 Partly Cloudy 79 26 58 14.5 49 49 N 5 7 29.93 1014 10 16 0.00 0.00
2:55 pm 14:55 Partly Cloudy 80 26.6 59 15.2 50 50 N 6 9 29.93 1013 10 16 0.00 0.00
3:15 pm 15:15 Partly Cloudy 77 25.2 59 15.2 54 54 NNE 6 9 29.93 1014 10 16 0.00 0.00
3:35 pm 15:35 Partly Cloudy 81 27.3 58 14.5 46 46 N 8 13 29.93 1013 10 16 0.00 0.00
3:55 pm 15:55 Partly Cloudy 79 26.3 56 13.5 45 45 N 9 15 29.93 1014 10 16 0.00 0.00
4:15 pm 16:15 Mostly Cloudy 81 27.4 56 13.2 42 42 N 6 9 29.92 1013 10 16 0.00 0.00
4:35 pm 16:35 Mostly Cloudy 80 26.6 58 14.2 47 47 N 8 13 29.93 1013 10 16 0.00 0.00
4:55 pm 16:55 Mostly Cloudy 81 27.4 56 13.2 42 42 NNW 9 15 29.92 1013 10 16 0.00 0.00
5:15 pm 17:15 Cloudy 79 26.3 57 14 47 47 NW 13 20 29.92 1013 10 16 0.00 0.00
5:35 pm 17:35 Mostly Cloudy 81 27.1 59 14.8 47 47 N 10 17 29.93 1013 10 16 0.00 0.00
5:55 pm 17:55 Mostly Cloudy 78 25.5 59 14.8 52 52 NNW 8 13 29.93 1014 10 16 0.00 0.00
6:15 pm 18:15 Partly Cloudy 77 25 59 15 54 54 N 12 19 29.93 1014 10 16 0.00 0.00
6:35 pm 18:35 Sunny 77 24.8 60 15.4 56 56 N 6 9 29.93 1014 10 16 0.00 0.00
6:55 pm 18:55 Sunny 78 25.6 60 15.7 54 54 N 9 15 29.93 1014 10 16 0.00 0.00
7:15 pm 19:15 Sunny 76 24.7 59 14.9 54 54 N 8 13 29.93 1014 10 16 0.00 0.00
7:35 pm 19:35 Partly Cloudy 75 23.9 59 15.1 58 58 NW 6 9 29.95 1014 10 16 0.00 0.00
7:55 pm 19:55 Partly Cloudy 73 22.7 61 16 66 66 NW 7 11 29.95 1014 10 16 0.00 0.00
8:15 pm 20:15 Sunny 73 22.5 60 15.8 66 66 NNW 7 11 29.96 1015 10 16 0.00 0.00
8:35 pm 20:35 Clear 71 21.9 60 15.5 67 67 N 7 11 29.96 1015 10 16 0.00 0.00
8:55 pm 20:55 Clear 70 21.3 60 15.5 70 70 NNW 6 9 29.96 1015 10 16 0.00 0.00
9:15 pm 21:15 Clear 69 20.6 60 15.4 72 72 N 5 7 29.97 1015 10 16 0.00 0.00
9:35 pm 21:35 Clear 68 20.2 60 15.7 75 75 N 3 6 29.98 1015 10 16 0.00 0.00
9:55 pm 21:55 Clear 68 20 60 15.8 77 77 N 6 9 29.98 1015 10 16 0.00 0.00
10:15 pm 22:15 Clear 68 20.1 60 15.3 74 74 N 6 9 29.99 1016 10 16 0.00 0.00
10:35 pm 22:35 Clear 68 20.1 59 15.1 73 73 N 7 11 29.99 1016 10 16 0.00 0.00
10:55 pm 22:55 Clear 67 19.7 59 15.1 75 75 N 6 9 29.99 1016 10 16 0.00 0.00
11:15 pm 23:15 Clear 67 19.6 59 15.1 75 75 N 6 9 30.01 1016 10 16 0.00 0.00
11:35 pm 23:35 Clear 66 19.1 60 15.4 79 79 N 7 11 30.01 1016 10 16 0.00 0.00
11:55 pm 23:55 Clear 66 18.7 60 15.7 83 83 N 6 9 30.01 1016 10 16 0.00 0.00

Powered by AerisWeather